Location: ??????
(55.8274°N, 37.9338°E)
Time: 12:40:19
(UTC+00:00)

Cosmos 921 Rocket - Pass Details

Date: 14 April 2024
Orbit: 567 x 626 km, 75.8° (Epoch: 17 May)

Event Time Altitude Azimuth Distance (km) Brightness Sun altitude
Rises 01:13:35 0° 181° (S) 2,794 6.1 -9.8°
Reaches altitude 10° 01:15:51 10° 174° (S) 1,908 5.3 -9.6°
Maximum altitude 01:19:49 40° 105° (ESE) 878 4.3 -9.1°
Drops below altitude 10° 01:23:54 10° 36° (NE) 1,957 6.9 -8.6°
Sets 01:26:15 0° 29° (NNE) 2,876 7.6 -8.3°
